FNG200 EFHK-EFHK

Flight info

Callsign FNG200
Flight time N/A
Altitude 3000
Route HAGIP PORKKALA TAMMISAARI OLPED HANKONIEMI HAGIP
Aircraft B412/L-SDFZ/C

Departure

Time 2026-04-24 16:18
Airport Helsinki Vantaa Airport (EFHK)

Arrival

Time N/A
Airport Helsinki Vantaa Airport (EFHK)
Time Latitude Longitude Altitude Speed Heading
2026-04-24 16:17 60.29762 24.97910 1287 ft 157 kts 229°
2026-04-24 16:18 60.27508 24.97666 844 ft 191 kts 192°
2026-04-24 16:18 60.25550 24.95403 607 ft 167 kts 229°
2026-04-24 16:18 60.24528 24.94703 677 ft 171 kts 194°
2026-04-24 16:19 60.22315 24.94456 891 ft 166 kts 192°
2026-04-24 16:19 60.21729 24.94174 1128 ft 147 kts 207°
2026-04-24 16:20 60.20618 24.93175 1270 ft 160 kts 213°
2026-04-24 16:20 60.20560 24.93120 1272 ft 161 kts 213°
2026-04-24 16:21 60.18679 24.90536 1369 ft 165 kts 230°
2026-04-24 16:21 60.17902 24.88945 1483 ft 159 kts 237°
2026-04-24 16:21 60.17255 24.87275 1535 ft 164 kts 243°
2026-04-24 16:22 60.16678 24.85600 1404 ft 171 kts 243°
2026-04-24 16:22 60.15482 24.81924 1404 ft 161 kts 237°
2026-04-24 16:22 60.14930 24.80615 1635 ft 121 kts 249°
2026-04-24 16:23 60.14531 24.79132 1600 ft 128 kts 248°
2026-04-24 16:23 60.14165 24.77581 1549 ft 132 kts 249°
2026-04-24 16:23 60.13765 24.75909 1482 ft 132 kts 250°
2026-04-24 16:24 60.12947 24.72627 1401 ft 135 kts 247°
2026-04-24 16:24 60.12426 24.71084 1367 ft 142 kts 220°
2026-04-24 16:24 60.11471 24.70555 1382 ft 145 kts 187°
2026-04-24 16:24 60.10453 24.70483 1383 ft 146 kts 181°
2026-04-24 16:25 60.09470 24.70510 1383 ft 146 kts 181°
2026-04-24 16:25 60.08458 24.70543 1384 ft 146 kts 181°
2026-04-24 16:25 60.07434 24.70584 1388 ft 146 kts 181°
2026-04-24 16:26 60.05413 24.70660 1389 ft 146 kts 180°
2026-04-24 16:26 60.04395 24.70679 1388 ft 146 kts 181°
2026-04-24 16:26 60.02354 24.70667 1388 ft 146 kts 181°
2026-04-24 16:27 60.01681 24.70652 1387 ft 145 kts 181°